[[{"header":{"parameterUnit":"m.s-1","parameterCategory":1,"la1":30.2991,"la2":30.254,"lo1":-89.0895,"lo2":-89.0444,"dy":0.0017,"dx":0.0017,"nx":28,"ny":28,"refTime":"2024-07-05T09:00:00:Z","depth":0,"parameterNumber":2,"parameterNumberName":"U-component_of_WINDS"},"data":[0,0,0,0,0,0,0,0,0,0,0,0,0,0,0,0,0,0,0,0,0,0,0,0,0,0,0,0,0,0,0,0,0,0,0,0,0,0,0,0,0,0,0,0,0,0,0,0,0,0,0,0,0,0,0,0,0,0,2.4236,2.4237,0,2.4327,2.4328,2.4329,2.4328,2.4326,2.4325,2.4324,2.4423,2.4427,2.443,0,0,0,0,0,0,0,0,0,0,0,0,0,2.4068,2.4071,2.4236,2.4237,2.4238,2.4327,2.4328,2.433,2.4328,2.4326,2.4325,2.4323,2.4422,2.4426,2.4431,0,0,0,0,0,0,0,0,0,0,0,0,0,2.4148,2.4072,2.4236,2.4248,2.425,2.4327,2.4328,2.433,2.4328,2.4326,2.4324,2.4323,2.442,2.4426,2.4431,2.4504,0,0,2.4449,2.4451,0,0,0,0,0,0,0,0,2.4144,2.4154,2.4245,2.4247,2.425,2.4314,2.4305,2.4388,2.4329,2.4299,2.4324,2.4322,2.4389,2.4397,2.4418,2.4508,2.4512,2.4449,2.4453,2.4455,2.4457,0,0,0,0,0,0,0,2.4138,2.4151,2.4272,2.4247,2.4249,2.4251,2.4261,2.4321,2.4353,2.4301,2.4301,2.4312,2.439,2.4413,2.442,2.4514,2.4449,2.4454,2.4458,2.446,2.4672,2.4674,0,0,0,0,0,0,2.4129,2.4146,2.4269,2.4275,2.4191,2.4256,2.4266,2.4295,2.4352,2.4359,2.4313,2.4311,2.4404,2.4414,2.4424,2.4514,2.4455,2.446,2.4464,2.4669,2.4672,2.4674,0,0,0,0,0,0,2.4125,2.414,2.4266,2.4211,2.4227,2.4261,2.4293,2.4298,2.4321,2.4361,2.4368,2.433,2.4403,2.4416,2.4484,2.4518,2.4463,2.4468,2.4667,2.467,2.4673,2.4695,0,0,0,0,0,0,2.4121,2.4139,2.4165,2.4211,2.423,2.4322,2.4295,2.4301,2.433,2.4329,2.4379,2.4386,2.4402,2.4476,2.449,2.4525,2.4472,2.4664,2.4668,2.4672,2.4691,2.4698,2.4704,0,0,0,0,0,2.4115,2.4168,2.4166,2.4181,2.4262,2.4324,2.4335,2.4351,2.4333,2.4361,2.4387,2.4384,2.4511,2.4483,2.4499,2.4535,2.4662,2.4667,2.4672,2.4688,2.4697,2.4704,0,0,0,0,0,0,2.4126,2.4174,2.4173,2.4242,2.4279,2.4324,2.4359,2.4359,2.4404,2.44,2.442,2.4432,2.4501,2.4525,2.4492,2.461,2.4585,2.4593,2.4592,2.46,2.4607,2.46,2.4477,0,0,0,0,0,2.4136,2.418,2.4221,2.4278,2.4296,2.4325,2.4352,2.4361,2.4401,2.4417,2.4449,2.4489,2.4539,2.4571,2.4618,2.4694,2.4707,2.4728,2.4735,2.474,2.4747,2.4792,2.4803,2.4691,2.4691,2.4691,0,0,2.4158,2.419,2.4217,2.4281,2.4311,2.4359,2.4338,2.4389,2.4425,2.4426,2.4492,2.4517,2.4564,2.4637,2.4671,2.4659,2.4781,2.4746,2.475,2.4755,2.4799,2.4809,2.4819,2.4694,2.4694,2.4693,0,0,2.4223,2.425,2.4302,2.4333,2.4378,2.4396,2.4409,2.4454,2.447,2.4537,2.4539,2.4584,2.4668,2.4702,2.473,2.481,2.4811,2.4826,2.4861,2.4904,2.4913,2.4921,2.4952,2.4962,2.4833,2.4833,2.4833,0,2.4245,2.4315,2.4329,2.4381,2.441,2.4412,2.4466,2.4496,2.4555,2.4576,2.4562,2.4669,2.47,2.4783,2.4803,2.4825,2.4842,2.482,2.491,2.4918,2.4926,2.4956,2.4967,2.4834,2.4834,2.4834,2.4834,0,2.4342,2.4391,2.4427,2.4483,2.4517,2.457,2.4594,2.4627,2.4634,2.4655,2.4725,2.4763,2.4819,2.4839,2.4847,2.4924,2.4915,2.4906,2.4881,2.4938,2.4967,2.4978,2.4837,2.4836,2.4836,2.4835,0,0,2.4416,2.4479,2.4493,2.452,2.457,2.461,2.4664,2.4717,2.4746,2.4788,2.4835,2.4907,2.4899,2.4931,2.4943,2.4981,2.5045,2.4967,2.4968,2.4981,2.5135,2.5143,2.5156,2.5045,2.5047,2.5049,2.5132,0,2.4487,2.4581,2.4597,2.4681,2.4728,2.4731,2.4779,2.4816,2.4838,2.4883,2.4908,2.4959,2.4943,2.4963,2.5,2.5029,2.5076,2.5023,2.5092,2.5094,2.5081,2.517,2.5179,2.5255,2.5143,2.5145,2.5146,0,2.4583,2.4626,2.4714,2.4761,2.4781,2.4823,2.4875,2.4917,2.4961,2.4975,2.5011,2.5019,2.5078,2.505,2.5134,2.5097,2.5127,2.5145,2.5149,2.5157,2.5124,2.5183,2.5279,2.5291,2.5163,2.5162,2.5161,0,2.4631,2.4711,2.4774,2.4797,2.4852,2.4882,2.4907,2.4949,2.4981,2.5027,2.5049,2.5102,2.5131,2.5173,2.5196,2.5173,2.5279,2.5252,2.5294,2.5293,2.5316,2.5315,2.5421,2.5333,2.5333,2.5333,2.5332,0,2.471,2.4765,2.4797,2.4836,2.4898,2.4917,2.4978,2.5003,2.5041,2.5087,2.5093,2.5137,2.5163,2.5212,2.523,2.5298,2.5311,2.5325,2.533,2.5325,2.5324,2.5346,2.5341,2.5336,2.5335,2.5334,2.5334,0,2.4774,2.4797,2.4867,2.4914,2.4927,2.4971,2.5013,2.5052,2.5074,2.5133,2.5148,2.5183,2.524,2.5267,2.5338,2.535,2.5428,2.5428,2.5413,2.5415,2.5456,2.5452,2.5581,2.5599,2.5498,2.5499,2.5499,0,2.4824,2.4865,2.4917,2.4947,2.4973,2.5022,2.5055,2.5076,2.511,2.5165,2.5198,2.5256,2.5302,2.5394,2.5428,2.5483,2.5486,2.5527,2.5494,2.5489,2.5489,2.5486,2.5492,2.5533,2.5534,2.5535,2.5536,0,2.491,2.492,2.4966,2.5017,2.5056,2.5097,2.5138,2.5163,2.5191,2.523,2.5288,2.5324,2.5397,2.5454,2.5512,2.554,2.5544,2.5546,2.5559,2.5555,2.5545,2.5553,2.5431,2.5543,2.5542,2.5542,2.5541,2.5541,2.497,2.5008,2.505,2.5102,2.5135,2.5174,2.5214,2.5241,2.5289,2.5348,2.5358,2.5421,2.5467,2.5544,2.5575,2.5625,2.5616,2.5634,2.5639,2.5644,2.5647,2.5536,2.5636,2.5636,2.5636,2.5635,2.5635,0,2.5058,2.5086,2.5133,2.519,2.5232,2.5229,2.5275,2.5311,2.5365,2.5406,2.5452,2.5521,2.5577,2.5615,2.5673,2.5706,2.571,2.5721,2.572,2.5727,2.5651,2.5635,2.5718,2.5718,2.5718,2.5718,2.5718,2.5718,2.5109,2.5174,2.519,2.5272,2.53,2.536,2.5387,2.5423,2.5457,2.5532,2.5578,2.5602,2.5643,2.5705,2.5757,2.5767,2.5789,2.5801,2.5811,2.574,2.5732,2.5723,2.5708,2.5805,2.5805,2.5883,2.5883,2.5884]},{"header":{"parameterUnit":"m.s-1","parameterCategory":1,"la1":30.2991,"la2":30.254,"lo1":-89.0895,"lo2":-89.0444,"dy":0.0017,"dx":0.0017,"nx":28,"ny":28,"refTime":"2024-07-05T09:00:00:Z","depth":0,"parameterNumber":3,"parameterNumberName":"V-component_of_WINDS"},"data":[0,0,0,0,0,0,0,0,0,0,0,0,0,0,0,0,0,0,0,0,0,0,0,0,0,0,0,0,0,0,0,0,0,0,0,0,0,0,0,0,0,0,0,0,0,0,0,0,0,0,0,0,0,0,0,0,0,0,2.0516,2.0518,0,2.0714,2.0716,2.0718,2.0753,2.0751,2.075,2.0748,2.0947,2.0954,2.0961,0,0,0,0,0,0,0,0,0,0,0,0,0,2.0162,2.0168,2.0516,2.0519,2.0521,2.0713,2.0716,2.0719,2.0753,2.0751,2.0749,2.0747,2.0945,2.0953,2.0961,0,0,0,0,0,0,0,0,0,0,0,0,0,2.0333,2.017,2.0516,2.0562,2.0568,2.0713,2.0716,2.0719,2.0754,2.0751,2.0749,2.0746,2.0942,2.0952,2.0962,2.1075,0,0,2.0994,2.0998,0,0,0,0,0,0,0,0,2.0323,2.0346,2.0552,2.0559,2.0566,2.0706,2.0664,2.0838,2.0754,2.0683,2.0748,2.0745,2.0869,2.0885,2.0927,2.1084,2.1093,2.0995,2.1001,2.1005,2.1008,0,0,0,0,0,0,0,2.0311,2.0338,2.0594,2.0555,2.0563,2.057,2.0591,2.0697,2.0787,2.0689,2.0692,2.0715,2.0872,2.0917,2.0932,2.1096,2.0994,2.1003,2.101,2.1014,2.1346,2.1349,0,0,0,0,0,0,2.0292,2.0327,2.0588,2.06,2.0436,2.0578,2.0602,2.0663,2.0786,2.0802,2.0717,2.0716,2.0901,2.092,2.0939,2.1074,2.1005,2.1015,2.1021,2.1344,2.1347,2.135,0,0,0,0,0,0,2.0284,2.0315,2.058,2.0465,2.0499,2.0587,2.0655,2.0669,2.0714,2.0807,2.0823,2.0747,2.09,2.0925,2.1039,2.1081,2.1019,2.1029,2.134,2.1345,2.1348,2.1347,0,0,0,0,0,0,2.0274,2.0312,2.0358,2.0465,2.0505,2.0679,2.0658,2.0674,2.0732,2.0733,2.084,2.0855,2.09,2.1024,2.1049,2.1094,2.1037,2.1337,2.1342,2.1347,2.1344,2.1351,2.1356,0,0,0,0,0,2.0261,2.0351,2.036,2.0391,2.0564,2.0682,2.0704,2.0754,2.0736,2.078,2.0839,2.0852,2.1073,2.1035,2.1064,2.1113,2.1335,2.1341,2.1347,2.1341,2.1349,2.1356,0,0,0,0,0,0,2.0247,2.0366,2.0378,2.0505,2.0583,2.0687,2.0746,2.0763,2.0847,2.0844,2.0902,2.0925,2.1035,2.1086,2.1042,2.1224,2.1202,2.1214,2.1187,2.1196,2.1202,2.1187,2.1045,0,0,0,0,0,2.0258,2.0345,2.0444,2.0546,2.0585,2.0658,2.0711,2.0743,2.0825,2.0858,2.0926,2.1004,2.109,2.1146,2.1232,2.1351,2.1372,2.1398,2.1404,2.1409,2.1419,2.1479,2.149,2.137,2.137,2.1369,0,0,2.0283,2.0359,2.041,2.0545,2.0609,2.0694,2.0686,2.0779,2.0841,2.0872,2.0983,2.1035,2.1125,2.1241,2.1295,2.1286,2.1456,2.1417,2.142,2.1427,2.1486,2.1498,2.1508,2.1374,2.1373,2.1372,0,0,2.0371,2.0439,2.0529,2.0592,2.0689,2.0736,2.0757,2.0858,2.0893,2.1006,2.1028,2.1103,2.1252,2.1314,2.1365,2.1469,2.1481,2.1495,2.1527,2.1586,2.1595,2.1604,2.1636,2.1648,2.1504,2.1504,2.1504,0,2.039,2.0522,2.0574,2.0663,2.0719,2.075,2.0839,2.0897,2.1016,2.1053,2.1041,2.1225,2.1289,2.1416,2.144,2.1482,2.1504,2.1483,2.159,2.1599,2.1608,2.1639,2.1652,2.1505,2.1505,2.1504,2.1504,0,2.0536,2.0627,2.0688,2.08,2.0863,2.0952,2.1014,2.1071,2.1095,2.1142,2.1252,2.1329,2.1427,2.146,2.1486,2.1589,2.158,2.1579,2.1557,2.1619,2.1649,2.1662,2.1506,2.1505,2.1505,2.1505,0,0,2.0624,2.076,2.0781,2.083,2.0935,2.1005,2.1092,2.1188,2.1233,2.1313,2.1384,2.1507,2.1504,2.1562,2.1594,2.1645,2.1715,2.1637,2.164,2.1645,2.1828,2.1826,2.184,2.1725,2.1727,2.173,2.1818,0,2.0722,2.0881,2.0927,2.1059,2.114,2.1167,2.1242,2.1313,2.1358,2.1431,2.148,2.1564,2.1557,2.159,2.1643,2.1696,2.1752,2.1691,2.1789,2.1791,2.1763,2.1856,2.1857,2.1937,2.1831,2.1833,2.1835,0,2.0859,2.0938,2.1078,2.1167,2.1203,2.127,2.1358,2.1429,2.1507,2.1535,2.1596,2.1623,2.171,2.1684,2.1803,2.1759,2.1801,2.1833,2.1837,2.1847,2.1816,2.1865,2.1965,2.1976,2.1855,2.1853,2.1852,0,2.0902,2.1045,2.1146,2.1187,2.1295,2.134,2.1387,2.1463,2.1515,2.1591,2.1625,2.171,2.1756,2.182,2.1866,2.1844,2.1979,2.1958,2.2002,2.2,2.2029,2.2026,2.2134,2.206,2.206,2.206,2.206,0,2.1005,2.1089,2.1166,2.1228,2.132,2.137,2.1459,2.1507,2.1573,2.1641,2.167,2.1733,2.1792,2.1862,2.1899,2.1988,2.201,2.2033,2.2041,2.2029,2.2025,2.2056,2.2051,2.2063,2.2062,2.2062,2.2061,0,2.107,2.1126,2.1237,2.1328,2.1353,2.1416,2.1493,2.1551,2.1595,2.1681,2.1704,2.1773,2.1856,2.1908,2.2015,2.2039,2.2135,2.2144,2.2109,2.2112,2.2152,2.2146,2.2282,2.23,2.2216,2.2217,2.2218,0,2.1131,2.1196,2.1293,2.1341,2.1387,2.1465,2.1517,2.1567,2.162,2.1711,2.1757,2.1842,2.1912,2.2042,2.21,2.2179,2.2187,2.2229,2.22,2.2183,2.2183,2.2178,2.2182,2.2233,2.2234,2.2235,2.2235,0,2.1232,2.1255,2.133,2.1414,2.1475,2.1543,2.1611,2.1648,2.1709,2.1766,2.1851,2.1905,2.2011,2.2093,2.2176,2.2221,2.2236,2.2244,2.2257,2.2245,2.222,2.223,2.2119,2.224,2.224,2.2239,2.2239,2.2239,2.1295,2.1351,2.1426,2.1507,2.1563,2.1624,2.1682,2.1732,2.1804,2.1894,2.1918,2.2005,2.2076,2.2189,2.2235,2.2302,2.2296,2.2317,2.2322,2.2326,2.2324,2.2211,2.2317,2.2317,2.2317,2.2317,2.2317,0,2.1393,2.1442,2.1516,2.1609,2.1671,2.168,2.1754,2.1805,2.1881,2.1946,2.2014,2.2108,2.2185,2.2247,2.2326,2.2367,2.2376,2.2386,2.2382,2.2391,2.2327,2.2305,2.2377,2.2377,2.2377,2.2377,2.2377,2.2377,2.1452,2.1545,2.1576,2.1695,2.1743,2.1829,2.1869,2.1924,2.1975,2.2079,2.2144,2.2184,2.2246,2.2329,2.2399,2.2414,2.2441,2.2449,2.2465,2.2403,2.2397,2.239,2.237,2.2455,2.2455,2.2524,2.2525,2.2525]}]]